Find Starlink 11603

NORAD ID: 63671 Int'l Des: 2025-085 Owner: SPXS Country: US Constellation: starlink operational
又名: STARLINK-11603 [DTC] celestrak
LEOCIRCULAR

当前视图

正在加载3D地球...

About Starlink 11603

Starlink 11603 (NORAD 63671) is a starlink constellation satellite (v2 mini d2c) launched Apr 28, 2025 by SPXS of US. It operates in LEO, CIRCULAR orbit with a mass of 960.00 kg.

即将过境

Passes for default location (London). Set your location on the main map for personalized predictions.

高度历史

Loading altitude history...

两行轨道根数

1 63671U 25085H 26263.90820069 .00098232 00000-0 76074-3 0 9997
2 63671 43.0000 181.7915 0003370 292.8896 67.1616 15.70812682 80949
Epoch: Sep 20, 2026 • Age: 5 hours

当前状态

高度 357.3 km
远地点 / 近地点 N/A
速度 7.70 km/s
星下点 -1.82°S, 44.86°W
发射日期 Apr 28, 2025
运行时间 1.3 years
类型 internet

技术详情

分类 Payload
质量 960.00 kg
干质量 910.00 kg
长度 0.30 m
跨度 29.00 m
形状 ? Box + pan
制造商 SPXS
平台类型 Starlink V2MD
阶段状态 In Orbit
所有者/国家 SPXS/US

Most Searched